Weather History for Ostrava, Czech Republic

Change the Weather History Date:

Thursday, December 12, 2013

  Actual Average (EPKT) Record (EPKT)
Temperature  
Mean Temperature 32 °F -  
Max Temperature 35 °F 35 °F 48 °F (1999)
Min Temperature 30 °F 24 °F 0 °F (2002)
Degree Days  
Heating Degree Days 32    
Moisture  
Dew Point 32 °F    
Average Humidity 93    
Maximum Humidity 100    
Minimum Humidity 76    
Precipitation  
Precipitation 0.00 in 0.04 in - ()
Sea Level Pressure  
Sea Level Pressure 30.47 in    
Wind  
Wind Speed 12 mph ()    
Max Wind Speed 20 mph    
Max Gust Speed -    
Visibility 3.2 miles    
Events      
Averages and records for this station are not official NWS values.
T = Trace of Precipitation, MM = Missing Value Source: Averaged Metar Reports

Daily Weather History Graph

Daily Weather History Graph

Search for Another Location

Airport:

Trip Planner

Search our weather history database for the weather conditions in past years. The results will help you decide how hot, cold, wet, or windy it might be!

Date:

Astronomy

Dec. 12, 2013 Rise Set
Actual Time 7:35 AM CET 3:46 PM CET
Civil Twilight 6:57 AM CET 4:24 PM CET
Nautical Twilight 6:16 AM CET 5:06 PM CET
Astronomical Twilight 5:37 AM CET 5:45 PM CET
Moon 1:03 PM CET (12/12) 2:17 AM CET (12/12)
Length of Visible Light 9h 27m
Length of Day
8h 11m
Waxing Gibbous, 78% of the Moon is Illuminated
Dec 12
Waxing Gibbous
Dec 17
Full
Dec 25
Last Quarter
Jan 1
New
Jan 8
First Quarter

Hourly Weather History & Observations

Time (CET) Temp. Windchill Dew Point Humidity Pressure Visibility Wind Dir Wind Speed Gust Speed Precip Events Conditions
12:00 AM 35.6 °F 28.0 °F 32.0 °F 87% 30.54 in 6.2 mi SW 10.4 mph - N/A   Overcast
12:30 AM 35.6 °F 27.5 °F 32.0 °F 87% 30.54 in 6.2 mi SW 11.5 mph - N/A   Overcast
1:00 AM 36 °F - 31 °F 76% 30.59 in 6 mi SW 13.4 mph - -   Mist
1:00 AM 35.6 °F 27.1 °F 32.0 °F 87% 30.54 in 5.6 mi SW 12.7 mph - N/A   Overcast
1:30 AM 35.6 °F 28.0 °F 32.0 °F 87% 30.54 in 5.0 mi SSW 10.4 mph - N/A   Overcast
1:36 AM 35.6 °F 28.0 °F 32.0 °F 87% 30.54 in 5.0 mi SSW 10.4 mph - N/A   Overcast
2:00 AM 35.6 °F 28.0 °F 32.0 °F 87% 30.54 in 4.3 mi SSW 10.4 mph - N/A   Overcast
2:30 AM 35.6 °F 29.2 °F 32.0 °F 87% 30.54 in 4.3 mi SW 8.1 mph - N/A   Overcast
3:00 AM 35.6 °F 29.9 °F 32.0 °F 87% 30.54 in 4.3 mi SW 6.9 mph - N/A   Overcast
3:30 AM 35.6 °F 29.2 °F 32.0 °F 87% 30.54 in 3.7 mi SW 8.1 mph - N/A   Overcast
3:51 AM 35.6 °F 27.5 °F 32.0 °F 87% 30.51 in 2.8 mi SSW 11.5 mph - N/A   Overcast
4:00 AM 35.6 °F 27.5 °F 32.0 °F 87% 30.51 in 2.8 mi SSW 11.5 mph - N/A   Overcast
4:30 AM 35.6 °F 27.5 °F 32.0 °F 87% 30.51 in 2.8 mi SSW 11.5 mph - N/A   Overcast
5:00 AM 35.6 °F 29.2 °F 33.8 °F 93% 30.51 in 2.5 mi SSW 8.1 mph - N/A   Overcast
5:30 AM 35.6 °F 29.2 °F 33.8 °F 93% 30.51 in 2.5 mi SW 8.1 mph - N/A   Overcast
6:00 AM 33.8 °F 26.4 °F 33.8 °F 100% 30.51 in 2.2 mi SW 9.2 mph - N/A   Overcast
6:30 AM 33.8 °F 25.8 °F 33.8 °F 100% 30.51 in 2.2 mi SW 10.4 mph - N/A   Overcast
7:00 AM 34 °F - 33 °F 94% 30.56 in 2 mi SW 8.9 mph - -   Mist
7:00 AM 33.8 °F 26.4 °F 33.8 °F 100% 30.51 in 2.5 mi SW 9.2 mph - N/A   Overcast
7:30 AM 33.8 °F 25.8 °F 33.8 °F 100% 30.51 in 2.2 mi WSW 10.4 mph - N/A   Overcast
8:00 AM 33.8 °F 25.8 °F 33.8 °F 100% 30.51 in 1.9 mi SW 10.4 mph - N/A   Overcast
8:30 AM 35.6 °F 27.5 °F 33.8 °F 93% 30.51 in 2.5 mi SW 11.5 mph - N/A   Overcast
9:00 AM 35.6 °F 26.2 °F 33.8 °F 93% 30.48 in 2.8 mi SW 15.0 mph - N/A   Overcast
9:30 AM 35.6 °F 27.5 °F 33.8 °F 93% 30.48 in 2.8 mi SW 11.5 mph - N/A   Overcast
10:00 AM 35.6 °F 26.2 °F 33.8 °F 93% 30.48 in 4.3 mi SW 15.0 mph - N/A   Overcast
10:30 AM 35.6 °F 26.6 °F 33.8 °F 93% 30.48 in 4.3 mi SW 13.8 mph - N/A   Overcast
11:00 AM 35.6 °F 25.9 °F 33.8 °F 93% 30.48 in 4.3 mi SW 16.1 mph - N/A   Overcast
11:30 AM 35.6 °F 25.9 °F 33.8 °F 93% 30.48 in 5.0 mi SW 16.1 mph - N/A   Overcast
12:00 PM 35.6 °F 26.2 °F 33.8 °F 93% 30.48 in 5.0 mi SW 15.0 mph - N/A   Overcast
12:30 PM 35.6 °F 25.2 °F 33.8 °F 93% 30.45 in 5.0 mi SW 18.4 mph - N/A   Overcast
1:00 PM 35 °F - 33 °F 89% 30.51 in 5 mi SW 17.9 mph - -   Mist
1:00 PM 35.6 °F 25.2 °F 33.8 °F 93% 30.45 in 5.0 mi SW 18.4 mph - N/A   Overcast
1:30 PM 35.6 °F 25.9 °F 33.8 °F 93% 30.45 in 5.0 mi SW 16.1 mph - N/A   Overcast
2:00 PM 35.6 °F 25.2 °F 32.0 °F 87% 30.45 in 5.0 mi SW 18.4 mph - N/A   Overcast
2:30 PM 35.6 °F 25.5 °F 32.0 °F 87% 30.45 in 5.0 mi SW 17.3 mph - N/A   Overcast
3:00 PM 33.8 °F 23.5 °F 32.0 °F 93% 30.42 in 5.0 mi SW 16.1 mph - N/A   Overcast
3:30 PM 33.8 °F 23.5 °F 32.0 °F 93% 30.42 in 3.1 mi SSW 16.1 mph - N/A   Overcast
4:00 PM 33.8 °F 23.2 °F 32.0 °F 93% 30.42 in 1.9 mi SW 17.3 mph - N/A   Overcast
4:30 PM 33.8 °F 23.5 °F 32.0 °F 93% 30.42 in 1.9 mi SW 16.1 mph - N/A   Overcast
5:00 PM 32.0 °F 20.8 °F 32.0 °F 100% 30.42 in 1.9 mi SW 17.3 mph - N/A   Overcast
5:30 PM 32.0 °F 20.8 °F 32.0 °F 100% 30.42 in 1.9 mi SW 17.3 mph - N/A   Overcast
6:00 PM 32.0 °F 21.2 °F 32.0 °F 100% 30.42 in 1.9 mi SW 16.1 mph - N/A   Overcast
6:30 PM 32.0 °F 21.2 °F 32.0 °F 100% 30.42 in 1.9 mi SW 16.1 mph - N/A   Overcast
7:00 PM 32 °F - 31 °F 94% 30.47 in 2 mi SW 15.7 mph - -   Mist
7:00 PM 32.0 °F 21.2 °F 32.0 °F 100% 30.42 in 1.9 mi SW 16.1 mph - N/A   Overcast
7:30 PM 32.0 °F 21.2 °F 30.2 °F 93% 30.39 in 1.9 mi SW 16.1 mph - N/A   Overcast
8:00 PM 32.0 °F 21.2 °F 30.2 °F 93% 30.39 in 1.9 mi SW 16.1 mph - N/A   Overcast
8:21 PM 32.0 °F 21.6 °F 30.2 °F 93% 30.39 in 1.1 mi SW 15.0 mph - N/A   Overcast
8:30 PM 32.0 °F 22.1 °F 30.2 °F 93% 30.39 in 1.1 mi SW 13.8 mph - N/A   Overcast
9:00 PM 32.0 °F 21.6 °F 30.2 °F 93% 30.39 in 1.1 mi SW 15.0 mph - N/A   Overcast
9:30 PM 32.0 °F 20.8 °F 30.2 °F 93% 30.39 in 1.2 mi SW 17.3 mph - N/A   Overcast
10:00 PM 30.2 °F 17.8 °F 30.2 °F 100% 30.39 in 1.9 mi SSW 19.6 mph - N/A   Overcast
10:30 PM 30.2 °F 18.5 °F 30.2 °F 100% 30.39 in 1.9 mi SW 17.3 mph - N/A   Overcast
11:00 PM 30.2 °F 17.8 °F 30.2 °F 100% 30.39 in 1.9 mi SW 19.6 mph - N/A   Overcast
11:30 PM 30.2 °F 18.1 °F 30.2 °F 100% 30.36 in 1.9 mi SW 18.4 mph - N/A   Overcast